Weather History for Ocala, FL

Change the Weather History Date:

Wednesday, December 12, 2012

  Actual Average Record
Temperature  
Mean Temperature 64 °F -  
Max Temperature 69 °F 68 °F 82 °F (2001)
Min Temperature 59 °F 45 °F 32 °F (2005)
Degree Days  
Heating Degree Days 1    
Growing Degree Days 14 (Base 50)    
Moisture  
Dew Point 56 °F    
Average Humidity 74    
Maximum Humidity 83    
Minimum Humidity 68    
Precipitation  
Precipitation 0.02 in - - ()
Sea Level Pressure  
Sea Level Pressure 30.06 in    
Wind  
Wind Speed 3 mph (NNE)    
Max Wind Speed 10 mph    
Max Gust Speed 16 mph    
Visibility 5 miles    
Events Rain    
Averages and records for this station are not official NWS values.
T = Trace of Precipitation, MM = Missing Value Source: NWS Daily Summary

Daily Weather History Graph

Daily Weather History Graph

Search for Another Location

Airport:

Trip Planner

Search our weather history database for the weather conditions in past years. The results will help you decide how hot, cold, wet, or windy it might be!

Date:

Astronomy

Dec. 12, 2012 Rise Set
Actual Time 7:13 AM EST 5:32 PM EST
Civil Twilight 6:47 AM EST 5:58 PM EST
Nautical Twilight 6:18 AM EST 6:27 PM EST
Astronomical Twilight 5:49 AM EST 6:56 PM EST
Moon 6:18 AM EST (12/12) 5:06 PM EST (12/12)
Length of Visible Light 11h 10m
Length of Day
10h 18m
Waning Crescent, 1% of the Moon is Illuminated
Dec 12
Waning Crescent
Dec 13
New
Dec 20
First Quarter
Dec 28
Full
Jan 4
Last Quarter

Hourly Weather History & Observations

Time (EST) Temp. Dew Point Humidity Pressure Visibility Wind Dir Wind Speed Gust Speed Precip Events Conditions
12:15 AM 69.8 °F 60.8 °F 73% 30.04 in 10.0 mi Calm Calm - N/A   Overcast
12:35 AM 69.8 °F 60.8 °F 73% 30.04 in 10.0 mi Calm Calm - N/A   Mostly Cloudy
12:55 AM 69.8 °F 60.8 °F 73% 30.04 in 10.0 mi Calm Calm - N/A   Mostly Cloudy
1:15 AM 69.8 °F 60.8 °F 73% 30.03 in 10.0 mi Calm Calm - N/A   Overcast
1:35 AM 69.8 °F 60.8 °F 73% 30.03 in 9.0 mi Calm Calm - N/A   Mostly Cloudy
1:55 AM 69.8 °F 60.8 °F 73% 30.04 in 9.0 mi Calm Calm - N/A   Overcast
2:15 AM 69.8 °F 60.8 °F 73% 30.03 in 8.0 mi Calm Calm - N/A   Overcast
2:35 AM 69.8 °F 60.8 °F 73% 30.01 in 5.0 mi Calm Calm - N/A   Overcast
2:55 AM 69.8 °F 60.8 °F 73% 30.00 in 3.0 mi Calm Calm - N/A   Overcast
3:15 AM 69.8 °F 60.8 °F 73% 30.00 in 1.2 mi Calm Calm - N/A   Overcast
3:35 AM 69.8 °F 62.6 °F 78% 30.00 in 0.8 mi NW 4.6 mph - N/A   Overcast
3:55 AM 69.8 °F 60.8 °F 73% 30.00 in 1.0 mi North 5.8 mph - N/A   Overcast
4:15 AM 68.0 °F 60.8 °F 78% 30.01 in 2.5 mi North 5.8 mph - N/A   Overcast
4:35 AM 66.2 °F 60.8 °F 83% 30.01 in 2.5 mi North 9.2 mph - N/A   Overcast
4:55 AM 66.2 °F 59.0 °F 78% 30.01 in 5.0 mi North 8.1 mph - N/A   Overcast
5:15 AM 66.2 °F 57.2 °F 73% 30.01 in 5.0 mi North 9.2 mph - N/A   Overcast
5:35 AM 64.4 °F 57.2 °F 77% 30.02 in 9.0 mi NE 5.8 mph - N/A   Overcast
5:55 AM 64.4 °F 55.4 °F 73% 30.03 in 7.0 mi NNE 6.9 mph - N/A   Overcast
6:15 AM 64.4 °F 55.4 °F 73% 30.03 in 4.0 mi North 8.1 mph - 0.01 in   Overcast
6:35 AM 64.4 °F 55.4 °F 73% 30.05 in 6.0 mi NNW 9.2 mph - 0.02 in   Overcast
6:50 AM 64.4 °F 55.4 °F 73% 30.05 in 4.0 mi North 6.9 mph - N/A Rain Light Rain
7:50 AM 62.6 °F 55.4 °F 77% 30.08 in 6.0 mi NE 4.6 mph - N/A   Overcast
8:50 AM 62.6 °F 53.6 °F 72% 30.09 in 6.0 mi NE 4.6 mph - N/A   Overcast
9:50 AM 62.6 °F 55.4 °F 77% 30.11 in 3.0 mi North 4.6 mph - N/A   Overcast
10:50 AM 64.4 °F 55.4 °F 73% 30.10 in 6.0 mi East 3.5 mph - N/A   Overcast
11:50 AM 66.2 °F 57.2 °F 73% 30.07 in 6.0 mi North 5.8 mph - N/A   Overcast
12:50 PM 68.0 °F 57.2 °F 68% 30.05 in 5.0 mi NE 5.8 mph - N/A   Overcast
1:50 PM 66.2 °F 57.2 °F 73% 30.04 in 5.0 mi NNE 4.6 mph - N/A   Overcast
2:50 PM 66.2 °F 57.2 °F 73% 30.05 in 4.0 mi North 10.4 mph - N/A   Overcast
3:50 PM 64.4 °F 55.4 °F 73% 30.06 in 4.0 mi North 9.2 mph - N/A   Overcast
4:50 PM 64.4 °F 55.4 °F 73% 30.08 in 4.0 mi North 9.2 mph - N/A   Overcast
5:50 PM 62.6 °F 53.6 °F 72% 30.03 in 2.0 mi NNE 9.2 mph 16.1 mph N/A   Overcast
6:50 PM 60.8 °F 53.6 °F 77% 30.07 in 2.0 mi North 9.2 mph - N/A   Overcast
7:55 PM 60.8 °F 51.8 °F 72% 30.08 in 3.0 mi NE 4.6 mph - N/A   Overcast
8:15 PM 60.8 °F 51.8 °F 72% 30.09 in 2.5 mi NNE 4.6 mph - N/A   Overcast
8:35 PM 60.8 °F 51.8 °F 72% 30.10 in 2.0 mi NNE 4.6 mph - N/A   Overcast
8:55 PM 60.8 °F 51.8 °F 72% 30.10 in 2.0 mi NNE 5.8 mph - N/A   Overcast
9:15 PM 59.0 °F 51.8 °F 77% 30.10 in 2.0 mi NNE 4.6 mph - N/A   Overcast
9:35 PM 59.0 °F 51.8 °F 77% 30.10 in 1.8 mi NE 3.5 mph - N/A   Overcast
9:55 PM 60.8 °F 51.8 °F 72% 30.11 in 2.5 mi NE 4.6 mph - N/A   Overcast
10:15 PM 60.8 °F 51.8 °F 72% 30.11 in 3.0 mi Calm Calm - N/A   Overcast
10:35 PM 60.8 °F 51.8 °F 72% 30.11 in 5.0 mi NNE 3.5 mph - N/A   Overcast
10:55 PM 60.8 °F 51.8 °F 72% 30.11 in 7.0 mi Calm Calm - N/A   Overcast
11:15 PM 60.8 °F 51.8 °F 72% 30.11 in 9.0 mi Calm Calm - N/A   Overcast
11:35 PM 60.8 °F 51.8 °F 72% 30.11 in 10.0 mi Calm Calm - N/A   Overcast
11:55 PM 60.8 °F 51.8 °F 72% 30.11 in 10.0 mi NNW 4.6 mph - N/A   Overcast